contact:dominique.lefevre@mio.osupytheas.fr, maurice.libes@osupytheas.fr, didier.mallarino@osupytheas.fr
Project:EMSO http://www.emso-fr.org/EMSO-France
Depth: 2436.0 m
Title:EMSO Ligure Ouest : Data MII capteur AQUADOPP
Date,Latitude,Longitude,X_East,Y_North,Z_Up,Amplitude_X,Amplitude_Y,Amplitude_Z,Batterie,SoundSpeed,Heading,Pitch,Roll,Pressure,TIS,Speed,Direction
, degrees North, degrees East, m.s-1, m.s-1,m.s-1, 1, 1, 1, Volt, m.s-1, degree, degree, degree, dbar, degree_C, m.s-1, degree
2022-11-15T01:04:02,42.805,6.029,-0.068,0.034,0.009,103.0,104.0,103.0,13.4,1505.1,323.1,-0.8,1.8,2471.593,13.27,0.076,296.6
2022-11-15T01:07:03,42.805,6.029,-0.04,-0.014,-0.068,101.0,102.0,100.0,13.4,1505.2,322.6,-0.7,1.8,2471.465,13.28,0.042,250.7
2022-11-15T01:10:03,42.805,6.029,0.007,0.008,0.009,101.0,100.0,100.0,13.3,1505.2,333.4,-0.8,1.8,2471.378,13.28,0.01,41.2
2022-11-15T01:13:03,42.805,6.029,-0.038,0.013,0.006,99.0,102.0,100.0,13.4,1505.2,331.0,-0.8,1.8,2471.327,13.28,0.04,288.9
2022-11-15T01:16:03,42.805,6.029,-0.002,0.003,-0.004,101.0,100.0,101.0,13.4,1505.2,325.8,-0.8,1.9,2471.229,13.28,0.003,326.3
2022-11-15T01:19:03,42.805,6.029,-0.017,0.01,-0.009,101.0,100.0,100.0,13.4,1505.2,333.7,-0.8,1.8,2471.188,13.29,0.019,300.5
2022-11-15T01:22:03,42.805,6.029,-0.008,0.026,0.027,99.0,99.0,101.0,13.4,1505.2,327.5,-0.8,1.8,2471.166,13.29,0.027,342.9
2022-11-15T01:25:03,42.805,6.029,-0.021,0.007,0.004,101.0,100.0,99.0,13.4,1505.2,328.1,-0.7,1.8,2471.139,13.29,0.022,288.4
2022-11-15T01:28:03,42.805,6.029,-0.025,0.0,-0.02,102.0,99.0,99.0,13.4,1505.2,324.3,-0.8,1.8,2471.146,13.29,0.025,270.0
2022-11-15T01:31:03,42.805,6.029,-0.01,0.013,0.039,101.0,100.0,100.0,13.4,1505.2,328.7,-0.7,1.8,2471.102,13.29,0.016,322.4
2022-11-15T01:34:03,42.805,6.029,-0.029,0.011,-0.02,100.0,101.0,100.0,13.3,1505.2,333.4,-0.8,1.8,2471.144,13.29,0.031,290.8
2022-11-15T01:37:03,42.805,6.029,-0.008,0.013,0.012,102.0,99.0,101.0,13.4,1505.2,322.3,-0.8,1.8,2471.058,13.29,0.015,328.4
2022-11-15T01:40:03,42.805,6.029,-0.015,0.007,-0.017,100.0,101.0,100.0,13.3,1505.2,333.0,-0.8,1.8,2471.066,13.29,0.016,295.0
2022-11-15T01:43:03,42.805,6.029,-0.028,0.021,-0.03,100.0,99.0,102.0,13.4,1505.2,334.4,-0.7,1.8,2471.08,13.29,0.035,306.9
2022-11-15T01:46:03,42.805,6.029,-0.037,0.024,-0.004,100.0,101.0,99.0,13.3,1505.2,329.8,-0.8,1.8,2471.089,13.29,0.044,303.0
2022-11-15T01:49:03,42.805,6.029,-0.017,0.005,-0.007,100.0,101.0,100.0,13.4,1505.2,333.4,-0.7,1.8,2471.081,13.29,0.017,286.4
2022-11-15T01:52:03,42.805,6.029,-0.023,0.019,0.0,99.0,100.0,100.0,13.4,1505.2,321.3,-0.8,1.8,2471.08,13.29,0.029,309.6
2022-11-15T01:55:03,42.805,6.029,0.0,0.013,0.0,99.0,102.0,98.0,13.4,1505.2,335.8,-0.8,1.8,2471.121,13.29,0.013,0.0
2022-11-15T01:58:03,42.805,6.029,0.018,-0.016,0.0,101.0,100.0,100.0,13.4,1505.2,328.7,-0.8,1.8,2471.063,13.29,0.024,131.6
2022-11-15T02:04:03,42.805,6.029,-0.03,0.014,0.001,101.0,100.0,100.0,13.4,1505.2,327.6,-0.8,1.8,2471.123,13.29,0.033,295.0
2022-11-15T02:07:03,42.805,6.029,-0.033,-0.003,-0.038,102.0,101.0,99.0,13.4,1505.2,319.0,-0.8,1.8,2471.095,13.29,0.033,264.8
2022-11-15T02:10:03,42.805,6.029,-0.008,0.005,-0.024,101.0,101.0,100.0,13.4,1505.2,328.9,-0.8,1.8,2471.107,13.29,0.009,302.0
2022-11-15T02:13:03,42.805,6.029,-0.019,0.016,0.003,101.0,101.0,99.0,13.3,1505.2,328.7,-0.8,1.8,2471.089,13.29,0.024,310.1
2022-11-15T02:16:03,42.805,6.029,-0.038,0.006,-0.005,104.0,100.0,100.0,13.4,1505.2,315.4,-0.8,1.8,2471.082,13.29,0.038,279.0
2022-11-15T02:19:03,42.805,6.029,-0.017,0.023,-0.01,100.0,103.0,99.0,13.3,1505.2,329.5,-0.8,1.8,2471.089,13.29,0.028,323.5
2022-11-15T02:22:03,42.805,6.029,-0.011,0.014,0.021,99.0,101.0,101.0,13.4,1505.2,320.1,-0.8,1.8,2471.085,13.29,0.017,321.8
2022-11-15T02:25:03,42.805,6.029,0.001,0.021,0.01,104.0,99.0,100.0,13.3,1505.2,335.3,-0.8,1.8,2471.067,13.29,0.021,2.7
2022-11-15T02:28:03,42.805,6.029,-0.02,-0.006,-0.053,101.0,100.0,99.0,13.3,1505.2,319.1,-0.7,1.8,2471.056,13.29,0.02,253.3
2022-11-15T02:31:03,42.805,6.029,-0.026,0.008,0.009,100.0,100.0,101.0,13.4,1505.2,323.9,-0.8,1.8,2471.048,13.29,0.027,287.1
2022-11-15T02:34:03,42.805,6.029,-0.005,-0.009,-0.004,100.0,100.0,100.0,13.3,1505.2,332.3,-0.8,1.8,2471.062,13.29,0.01,209.1
2022-11-15T02:37:03,42.805,6.029,-0.036,0.007,-0.019,100.0,101.0,100.0,13.3,1505.2,333.4,-0.8,1.8,2471.074,13.29,0.036,281.0
2022-11-15T02:40:03,42.805,6.029,-0.003,0.007,-0.03,101.0,101.0,99.0,13.4,1505.2,331.0,-0.8,1.9,2471.061,13.29,0.007,336.8
2022-11-15T02:43:03,42.805,6.029,-0.017,0.004,-0.005,101.0,101.0,100.0,13.4,1505.2,332.7,-0.8,1.8,2471.066,13.29,0.017,283.2
2022-11-15T02:46:03,42.805,6.029,-0.005,0.014,0.006,100.0,101.0,99.0,13.3,1505.2,329.7,-0.7,1.8,2471.031,13.29,0.014,340.4
2022-11-15T02:49:03,42.805,6.029,-0.003,-0.01,0.014,102.0,101.0,100.0,13.4,1505.2,329.6,-0.8,1.8,2471.042,13.29,0.01,196.7
2022-11-15T02:52:03,42.805,6.029,-0.014,0.01,0.003,100.0,100.0,102.0,13.3,1505.2,322.9,-0.7,1.8,2471.057,13.29,0.017,305.5
2022-11-15T02:55:03,42.805,6.029,-0.006,0.022,0.005,101.0,100.0,101.0,13.3,1505.2,328.2,-0.8,1.8,2471.043,13.29,0.022,344.7
2022-11-15T02:58:03,42.805,6.029,-0.036,0.005,0.016,99.0,101.0,99.0,13.4,1505.2,323.5,-0.8,1.8,2471.095,13.29,0.036,277.9
2022-11-15T03:04:03,42.805,6.029,-0.023,0.007,-0.03,100.0,99.0,100.0,13.4,1505.2,327.3,-0.8,1.8,2471.066,13.29,0.024,286.9
2022-11-15T03:07:03,42.805,6.029,-0.014,0.019,-0.008,101.0,100.0,99.0,13.3,1505.2,336.1,-0.7,1.8,2471.109,13.29,0.023,323.6
2022-11-15T03:10:03,42.805,6.029,-0.037,-0.006,-0.015,100.0,100.0,101.0,13.4,1505.2,326.3,-0.8,1.8,2471.055,13.29,0.037,260.8
2022-11-15T03:13:03,42.805,6.029,-0.02,0.014,-0.01,100.0,101.0,99.0,13.4,1505.2,331.0,-0.8,1.8,2471.117,13.29,0.024,305.0
2022-11-15T03:16:03,42.805,6.029,-0.009,0.011,-0.005,100.0,99.0,101.0,13.4,1505.2,326.7,-0.8,1.8,2471.076,13.29,0.014,320.7
2022-11-15T03:19:03,42.805,6.029,-0.018,0.011,-0.015,98.0,102.0,100.0,13.3,1505.2,335.4,-0.8,1.8,2471.105,13.29,0.021,301.4
2022-11-15T03:22:03,42.805,6.029,-0.021,0.013,0.005,101.0,101.0,99.0,13.3,1505.2,320.3,-0.7,1.8,2471.057,13.29,0.024,301.8
2022-11-15T03:25:03,42.805,6.029,-0.055,0.033,0.009,100.0,101.0,100.0,13.4,1505.2,318.8,-0.7,1.8,2471.087,13.29,0.064,301.0
2022-11-15T03:28:03,42.805,6.029,-0.021,0.03,0.038,101.0,101.0,100.0,13.4,1505.2,323.8,-0.8,1.8,2471.113,13.29,0.036,325.0
2022-11-15T03:31:03,42.805,6.029,-0.031,0.026,0.007,101.0,102.0,98.0,13.3,1505.2,325.3,-0.8,1.8,2471.05,13.29,0.04,310.0
2022-11-15T03:34:03,42.805,6.029,-0.047,0.035,-0.002,100.0,100.0,100.0,13.3,1505.2,322.8,-0.8,1.8,2471.047,13.29,0.058,306.7
2022-11-15T03:37:03,42.805,6.029,-0.028,-0.002,0.0,100.0,100.0,100.0,13.4,1505.2,326.9,-0.7,1.8,2471.037,13.29,0.028,265.9
2022-11-15T03:40:03,42.805,6.029,-0.028,0.008,0.003,101.0,101.0,99.0,13.4,1505.2,327.7,-0.8,1.8,2471.046,13.29,0.029,285.9
2022-11-15T03:43:03,42.805,6.029,-0.049,0.005,-0.022,100.0,100.0,100.0,13.4,1505.2,319.9,-0.8,1.8,2471.032,13.29,0.049,275.8
2022-11-15T03:46:03,42.805,6.029,-0.007,0.027,0.015,99.0,101.0,100.0,13.4,1505.2,326.1,-0.7,1.9,2471.052,13.29,0.027,345.5
2022-11-15T03:49:03,42.805,6.029,-0.028,-0.001,-0.054,100.0,100.0,100.0,13.3,1505.2,322.7,-0.8,1.8,2471.074,13.29,0.028,268.0
2022-11-15T03:52:03,42.805,6.029,-0.012,0.0,-0.003,100.0,101.0,99.0,13.3,1505.2,333.7,-0.8,1.8,2471.051,13.29,0.012,270.0
2022-11-15T03:55:03,42.805,6.029,-0.008,0.029,-0.004,100.0,100.0,99.0,13.3,1505.2,330.4,-0.8,1.8,2471.002,13.29,0.03,344.6
2022-11-15T03:58:03,42.805,6.029,-0.021,0.01,0.007,102.0,102.0,98.0,13.4,1505.2,326.9,-0.8,1.8,2471.028,13.29,0.023,295.5
2022-11-15T04:04:03,42.805,6.029,-0.046,0.021,-0.025,101.0,100.0,100.0,13.4,1505.2,328.6,-0.8,1.8,2471.063,13.29,0.05,294.5
2022-11-15T04:07:03,42.805,6.029,-0.032,0.016,0.002,101.0,101.0,100.0,13.4,1505.2,322.5,-0.8,1.8,2471.091,13.29,0.035,296.6
2022-11-15T04:10:03,42.805,6.029,-0.028,0.032,-0.011,102.0,99.0,99.0,13.4,1505.2,327.9,-0.8,1.8,2471.038,13.29,0.042,318.8
2022-11-15T04:13:03,42.805,6.029,-0.011,0.034,0.025,101.0,101.0,100.0,13.4,1505.2,321.8,-0.7,1.8,2471.046,13.29,0.035,342.1
2022-11-15T04:16:03,42.805,6.029,-0.035,0.01,-0.034,100.0,101.0,100.0,13.3,1505.2,323.3,-0.8,1.8,2471.052,13.29,0.036,285.9
2022-11-15T04:19:03,42.805,6.029,-0.046,0.009,0.008,100.0,101.0,100.0,13.4,1505.2,327.5,-0.8,1.8,2471.055,13.29,0.046,281.1
2022-11-15T04:22:03,42.805,6.029,0.0,0.01,0.005,100.0,101.0,100.0,13.3,1505.2,329.4,-0.8,1.8,2471.062,13.29,0.01,0.0
2022-11-15T04:25:03,42.805,6.029,-0.008,0.005,-0.02,100.0,100.0,102.0,13.4,1505.2,330.0,-0.8,1.8,2471.069,13.29,0.009,302.0
2022-11-15T04:28:03,42.805,6.029,0.008,-0.009,-0.024,100.0,100.0,100.0,13.4,1505.2,325.5,-0.8,1.8,2471.065,13.29,0.012,138.4
2022-11-15T04:31:03,42.805,6.029,-0.001,-0.011,-0.04,100.0,100.0,100.0,13.4,1505.2,326.4,-0.8,1.8,2471.023,13.29,0.011,185.2
2022-11-15T04:34:03,42.805,6.029,-0.031,0.028,-0.01,102.0,100.0,100.0,13.4,1505.2,335.6,-0.8,1.8,2471.051,13.29,0.041,312.1
2022-11-15T04:37:03,42.805,6.029,-0.028,0.011,0.015,100.0,101.0,100.0,13.4,1505.2,327.9,-0.7,1.8,2471.031,13.29,0.03,291.4
2022-11-15T04:40:03,42.805,6.029,-0.023,-0.001,-0.008,100.0,101.0,100.0,13.3,1505.2,329.5,-0.7,1.8,2471.069,13.29,0.023,267.5
2022-11-15T04:43:03,42.805,6.029,-0.035,0.019,-0.01,100.0,100.0,100.0,13.4,1505.2,317.3,-0.8,1.8,2471.06,13.29,0.039,298.5
2022-11-15T04:46:03,42.805,6.029,-0.034,0.01,-0.007,100.0,101.0,101.0,13.4,1505.2,321.6,-0.7,1.8,2471.072,13.29,0.035,286.4
2022-11-15T04:49:03,42.805,6.029,-0.049,0.03,-0.007,100.0,101.0,100.0,13.4,1505.2,323.3,-0.8,1.8,2471.062,13.29,0.057,301.5
2022-11-15T04:52:03,42.805,6.029,-0.048,0.018,-0.014,100.0,101.0,100.0,13.3,1505.2,326.3,-0.8,1.8,2471.043,13.29,0.051,290.6
2022-11-15T04:55:03,42.805,6.029,-0.026,0.036,0.014,100.0,100.0,100.0,13.3,1505.2,325.7,-0.8,1.8,2471.035,13.29,0.044,324.2
2022-11-15T04:58:03,42.805,6.029,-0.03,0.001,0.009,101.0,102.0,100.0,13.3,1505.2,327.9,-0.8,1.8,2471.062,13.29,0.03,271.9
2022-11-15T05:04:03,42.805,6.029,-0.03,0.004,0.005,101.0,100.0,100.0,13.3,1505.2,323.2,-0.8,1.9,2471.093,13.29,0.03,277.6
2022-11-15T05:07:03,42.805,6.029,-0.027,0.012,-0.002,103.0,99.0,101.0,13.3,1505.2,334.3,-0.8,1.8,2471.096,13.29,0.029,294.0
2022-11-15T05:10:03,42.805,6.029,-0.033,0.015,0.0,99.0,101.0,101.0,13.3,1505.2,331.0,-0.8,1.8,2471.087,13.29,0.036,294.4
2022-11-15T05:13:03,42.805,6.029,-0.005,-0.008,-0.03,101.0,100.0,100.0,13.3,1505.2,333.4,-0.7,1.8,2471.03,13.29,0.009,212.0
2022-11-15T05:16:03,42.805,6.029,-0.012,0.027,0.009,101.0,101.0,100.0,13.4,1505.2,323.5,-0.8,1.8,2471.052,13.29,0.029,336.0
2022-11-15T05:19:03,42.805,6.029,-0.009,-0.017,-0.026,99.0,102.0,99.0,13.4,1505.2,326.6,-0.7,1.8,2471.062,13.29,0.019,207.9
2022-11-15T05:22:03,42.805,6.029,-0.015,0.028,0.006,101.0,101.0,100.0,13.4,1505.2,321.5,-0.8,1.8,2471.033,13.29,0.031,331.8
2022-11-15T05:25:03,42.805,6.029,-0.013,0.009,-0.028,103.0,98.0,100.0,13.3,1505.2,333.4,-0.8,1.8,2471.037,13.29,0.015,304.7
2022-11-15T05:28:03,42.805,6.029,-0.007,-0.012,-0.025,100.0,101.0,100.0,13.4,1505.2,323.7,-0.8,1.8,2471.052,13.29,0.013,210.3
2022-11-15T05:31:03,42.805,6.029,-0.022,0.022,-0.014,99.0,100.0,100.0,13.3,1505.2,333.4,-0.8,1.8,2471.035,13.29,0.031,315.0
2022-11-15T05:34:03,42.805,6.029,-0.016,0.015,-0.001,100.0,101.0,100.0,13.3,1505.2,333.7,-0.8,1.8,2471.025,13.29,0.021,313.1
2022-11-15T05:37:03,42.805,6.029,0.003,0.001,-0.022,101.0,100.0,99.0,13.4,1505.2,334.7,-0.8,1.8,2471.024,13.29,0.003,71.6
2022-11-15T05:40:03,42.805,6.029,-0.025,0.0,-0.008,100.0,100.0,100.0,13.3,1505.2,321.2,-0.8,1.8,2471.04,13.29,0.025,270.0
2022-11-15T05:43:03,42.805,6.029,-0.028,0.008,-0.015,100.0,101.0,100.0,13.3,1505.2,328.6,-0.8,1.8,2471.049,13.29,0.029,285.9
2022-11-15T05:46:03,42.805,6.029,-0.017,0.017,-0.003,100.0,101.0,99.0,13.4,1505.2,323.4,-0.7,1.8,2471.035,13.29,0.024,315.0
2022-11-15T05:49:03,42.805,6.029,-0.023,0.003,-0.005,100.0,100.0,100.0,13.3,1505.2,316.4,-0.8,1.8,2471.056,13.29,0.023,277.4
2022-11-15T05:52:03,42.805,6.029,-0.006,-0.002,-0.017,101.0,101.0,101.0,13.4,1505.2,333.0,-0.7,1.8,2471.052,13.29,0.006,251.6
2022-11-15T05:55:03,42.805,6.029,-0.026,0.03,0.02,100.0,101.0,100.0,13.4,1505.2,331.1,-0.8,1.8,2471.052,13.29,0.039,319.1
2022-11-15T05:58:03,42.805,6.029,-0.015,0.009,-0.025,100.0,101.0,100.0,13.4,1505.2,333.1,-0.8,1.8,2471.019,13.29,0.017,301.0
2022-11-15T06:04:03,42.805,6.029,-0.014,-0.004,0.015,100.0,101.0,100.0,13.3,1505.2,331.0,-0.8,1.8,2471.129,13.29,0.014,254.1
2022-11-15T06:07:03,42.805,6.029,-0.025,0.01,0.016,100.0,101.0,100.0,13.4,1505.2,331.0,-0.8,1.8,2471.084,13.29,0.026,291.8
2022-11-15T06:10:03,42.805,6.029,-0.03,0.022,-0.005,101.0,101.0,99.0,13.4,1505.2,326.3,-0.8,1.8,2471.111,13.29,0.037,306.3
2022-11-15T06:13:03,42.805,6.029,-0.042,0.007,-0.011,100.0,100.0,100.0,13.4,1505.2,328.9,-0.8,1.8,2471.073,13.29,0.042,279.5
2022-11-15T06:16:03,42.805,6.029,-0.029,0.004,-0.011,100.0,101.0,100.0,13.4,1505.2,321.1,-0.7,1.9,2471.063,13.29,0.029,277.8
2022-11-15T06:19:03,42.805,6.029,-0.035,0.024,-0.003,100.0,100.0,100.0,13.4,1505.2,329.4,-0.8,1.8,2471.056,13.29,0.042,304.4
2022-11-15T06:22:03,42.805,6.029,-0.02,0.016,0.001,99.0,100.0,101.0,13.3,1505.2,331.8,-0.8,1.8,2471.032,13.29,0.025,308.7
2022-11-15T06:25:03,42.805,6.029,-0.027,0.02,0.022,100.0,101.0,100.0,13.3,1505.2,335.0,-0.8,1.8,2471.05,13.29,0.033,306.5
2022-11-15T06:28:03,42.805,6.029,-0.011,0.022,0.028,100.0,100.0,100.0,13.4,1505.2,327.9,-0.8,1.8,2471.075,13.29,0.024,333.4
2022-11-15T06:31:03,42.805,6.029,-0.008,0.005,-0.015,101.0,100.0,99.0,13.4,1505.2,329.7,-0.7,1.8,2471.036,13.29,0.009,302.0
2022-11-15T06:34:03,42.805,6.029,-0.007,0.007,0.017,101.0,100.0,100.0,13.3,1505.2,330.6,-0.8,1.8,2471.048,13.29,0.009,315.0
2022-11-15T06:37:03,42.805,6.029,-0.012,-0.019,-0.021,100.0,100.0,100.0,13.4,1505.2,317.6,-0.8,1.8,2471.099,13.29,0.022,212.3
2022-11-15T06:40:03,42.805,6.029,-0.025,0.018,-0.006,100.0,100.0,100.0,13.3,1505.2,322.9,-0.8,1.8,2471.103,13.29,0.03,305.8
2022-11-15T06:43:03,42.805,6.029,-0.011,-0.001,0.022,101.0,99.0,100.0,13.4,1505.2,334.0,-0.8,1.8,2471.05,13.29,0.011,264.8
2022-11-15T06:46:03,42.805,6.029,-0.012,0.0,-0.009,99.0,101.0,100.0,13.4,1505.2,333.4,-0.8,1.8,2471.059,13.29,0.012,270.0
2022-11-15T06:49:03,42.805,6.029,-0.002,0.001,0.004,100.0,101.0,100.0,13.4,1505.2,334.8,-0.8,1.8,2471.033,13.29,0.002,296.6
2022-11-15T06:52:03,42.805,6.029,-0.024,0.005,-0.035,99.0,102.0,100.0,13.4,1505.2,330.3,-0.8,1.8,2471.145,13.29,0.024,281.8
2022-11-15T06:55:03,42.805,6.029,-0.024,0.003,0.002,101.0,100.0,99.0,13.3,1505.2,323.1,-0.8,1.8,2471.064,13.29,0.024,277.1
2022-11-15T06:58:03,42.805,6.029,-0.039,0.033,0.004,99.0,99.0,100.0,13.4,1505.2,317.7,-0.8,1.8,2471.103,13.29,0.051,310.2
2022-11-15T07:04:03,42.805,6.029,-0.026,0.005,-0.006,100.0,101.0,99.0,13.4,1505.2,321.8,-0.8,1.8,2471.133,13.29,0.026,280.9
2022-11-15T07:07:03,42.805,6.029,-0.031,0.014,-0.009,100.0,100.0,100.0,13.4,1505.2,329.4,-0.8,1.8,2471.095,13.29,0.034,294.3
2022-11-15T07:10:03,42.805,6.029,-0.027,0.047,0.027,100.0,100.0,100.0,13.4,1505.2,322.5,-0.8,1.8,2471.106,13.29,0.054,330.1
2022-11-15T07:13:03,42.805,6.029,-0.017,0.0,-0.021,100.0,100.0,100.0,13.3,1505.2,322.0,-0.8,1.8,2471.131,13.29,0.017,270.0
2022-11-15T07:16:03,42.805,6.029,-0.016,0.015,-0.006,100.0,99.0,99.0,13.4,1505.2,328.4,-0.8,1.8,2471.095,13.29,0.021,313.1
2022-11-15T07:19:03,42.805,6.029,-0.023,0.014,0.014,100.0,100.0,100.0,13.4,1505.2,318.7,-0.8,1.8,2471.082,13.29,0.026,301.3
2022-11-15T07:22:03,42.805,6.029,-0.023,0.015,0.001,100.0,101.0,99.0,13.3,1505.2,335.1,-0.7,1.8,2471.079,13.29,0.027,303.1
2022-11-15T07:25:03,42.805,6.029,-0.032,0.015,-0.01,102.0,100.0,99.0,13.3,1505.2,330.0,-0.8,1.8,2471.117,13.29,0.035,295.1
2022-11-15T07:28:03,42.805,6.029,-0.006,-0.009,-0.037,100.0,100.0,99.0,13.4,1505.2,333.0,-0.8,1.8,2471.053,13.29,0.01,213.7
2022-11-15T07:31:03,42.805,6.029,-0.015,0.001,-0.006,99.0,102.0,100.0,13.4,1505.2,319.8,-0.8,1.8,2471.126,13.29,0.015,273.8
2022-11-15T07:34:03,42.805,6.029,-0.003,0.018,0.001,100.0,101.0,100.0,13.4,1505.2,321.5,-0.8,1.8,2471.109,13.29,0.018,350.5
2022-11-15T07:37:03,42.805,6.029,-0.006,-0.002,0.012,100.0,100.0,100.0,13.3,1505.2,318.5,-0.8,1.8,2471.1,13.29,0.006,251.6
2022-11-15T07:40:03,42.805,6.029,-0.024,0.032,0.0,99.0,101.0,100.0,13.4,1505.2,332.5,-0.8,1.8,2471.118,13.29,0.04,323.1
2022-11-15T07:43:03,42.805,6.029,-0.019,0.02,0.002,99.0,100.0,100.0,13.4,1505.2,324.4,-0.8,1.8,2471.102,13.29,0.027,316.5
2022-11-15T07:46:03,42.805,6.029,-0.001,0.005,-0.001,99.0,100.0,100.0,13.4,1505.2,321.1,-0.8,1.8,2471.083,13.29,0.005,348.7
2022-11-15T07:49:03,42.805,6.029,-0.017,0.004,-0.017,99.0,101.0,100.0,13.4,1505.2,318.1,-0.7,1.8,2471.117,13.29,0.017,283.2
2022-11-15T07:52:03,42.805,6.029,0.002,0.0,-0.016,98.0,101.0,100.0,13.4,1505.2,325.5,-0.8,1.8,2471.091,13.29,0.002,90.0
2022-11-15T07:55:03,42.805,6.029,0.0,0.011,0.015,100.0,101.0,100.0,13.3,1505.2,335.7,-0.7,1.8,2471.084,13.29,0.011,0.0
2022-11-15T07:58:03,42.805,6.029,-0.039,0.019,-0.007,99.0,101.0,100.0,13.3,1505.2,319.4,-0.8,1.8,2471.109,13.29,0.043,296.0
2022-11-15T08:04:03,42.805,6.029,-0.04,0.002,-0.024,101.0,101.0,100.0,13.4,1505.2,328.9,-0.7,1.8,2471.163,13.29,0.04,272.9
2022-11-15T08:07:03,42.805,6.029,0.007,-0.006,0.001,100.0,101.0,100.0,13.4,1505.2,323.7,-0.8,1.8,2471.152,13.29,0.009,130.6
2022-11-15T08:10:03,42.805,6.029,-0.016,0.017,-0.019,101.0,100.0,100.0,13.4,1505.2,328.5,-0.7,1.8,2471.11,13.29,0.023,316.7
2022-11-15T08:13:03,42.805,6.029,-0.025,0.007,-0.012,100.0,101.0,100.0,13.4,1505.2,315.9,-0.8,1.8,2471.14,13.29,0.025,285.6
2022-11-15T08:16:03,42.805,6.029,-0.023,0.028,-0.011,101.0,99.0,100.0,13.4,1505.2,328.2,-0.7,1.8,2471.117,13.29,0.036,320.6
2022-11-15T08:19:03,42.805,6.029,-0.016,0.015,0.006,100.0,99.0,100.0,13.4,1505.2,328.3,-0.7,1.8,2471.131,13.29,0.021,313.1
2022-11-15T08:22:03,42.805,6.029,-0.007,0.002,0.022,101.0,100.0,100.0,13.4,1505.2,322.1,-0.7,1.8,2471.1,13.29,0.007,285.9
2022-11-15T08:25:03,42.805,6.029,-0.01,0.008,-0.011,100.0,101.0,100.0,13.4,1505.2,325.2,-0.8,1.8,2471.136,13.29,0.012,308.7
2022-11-15T08:28:03,42.805,6.029,-0.019,0.035,0.015,100.0,101.0,100.0,13.3,1505.2,322.1,-0.7,1.8,2471.095,13.29,0.039,331.5
2022-11-15T08:31:03,42.805,6.029,-0.012,0.011,0.01,99.0,102.0,100.0,13.3,1505.2,328.4,-0.7,1.8,2471.122,13.29,0.016,312.5
2022-11-15T08:34:03,42.805,6.029,-0.022,0.001,-0.006,101.0,100.0,100.0,13.4,1505.2,323.7,-0.8,1.8,2471.124,13.29,0.022,272.6
2022-11-15T08:37:03,42.805,6.029,0.006,0.009,0.013,100.0,101.0,100.0,13.3,1505.2,317.2,-0.8,1.8,2471.152,13.29,0.01,33.7
2022-11-15T08:40:03,42.805,6.029,-0.039,0.03,0.001,99.0,99.0,101.0,13.4,1505.2,332.4,-0.8,1.8,2471.13,13.29,0.049,307.6
2022-11-15T08:43:03,42.805,6.029,-0.016,0.022,0.015,99.0,101.0,100.0,13.4,1505.2,323.2,-0.8,1.8,2471.122,13.29,0.027,324.0
2022-11-15T08:46:03,42.805,6.029,-0.009,0.002,-0.048,101.0,100.0,100.0,13.4,1505.2,315.9,-0.8,1.8,2471.109,13.29,0.009,282.5
2022-11-15T08:49:03,42.805,6.029,-0.011,0.005,-0.001,100.0,101.0,100.0,13.3,1505.2,323.7,-0.8,1.8,2471.14,13.29,0.012,294.4
2022-11-15T08:52:03,42.805,6.029,-0.015,-0.019,-0.016,101.0,101.0,99.0,13.4,1505.2,321.3,-0.8,1.8,2471.109,13.29,0.024,218.3
2022-11-15T08:55:03,42.805,6.029,-0.006,-0.002,-0.026,100.0,99.0,100.0,13.4,1505.2,329.4,-0.8,1.8,2471.123,13.29,0.006,251.6
2022-11-15T08:58:03,42.805,6.029,-0.009,-0.018,-0.06,100.0,101.0,99.0,13.4,1505.2,331.4,-0.8,1.8,2471.134,13.29,0.02,206.6
2022-11-15T09:04:03,42.805,6.029,-0.019,0.019,-0.012,100.0,100.0,100.0,13.4,1505.2,325.9,-0.8,1.8,2471.192,13.29,0.026,315.0
2022-11-15T09:07:03,42.805,6.029,0.001,0.007,-0.036,100.0,100.0,100.0,13.4,1505.2,331.3,-0.8,1.8,2471.194,13.29,0.007,8.1
2022-11-15T09:10:03,42.805,6.029,-0.01,0.018,0.023,100.0,101.0,100.0,13.4,1505.2,331.3,-0.8,1.8,2471.187,13.29,0.02,330.9
2022-11-15T09:13:03,42.805,6.029,-0.016,0.012,0.003,100.0,101.0,100.0,13.4,1505.2,321.3,-0.8,1.8,2471.181,13.29,0.02,306.9
2022-11-15T09:16:03,42.805,6.029,-0.019,0.024,0.009,100.0,101.0,100.0,13.4,1505.2,329.2,-0.7,1.8,2471.159,13.29,0.03,321.6
2022-11-15T09:19:03,42.805,6.029,-0.009,-0.022,-0.014,100.0,101.0,100.0,13.4,1505.2,324.0,-0.8,1.8,2471.163,13.29,0.023,202.2
2022-11-15T09:22:03,42.805,6.029,-0.031,0.01,-0.022,100.0,100.0,100.0,13.4,1505.2,322.0,-0.8,1.8,2471.137,13.29,0.032,287.9
2022-11-15T09:25:03,42.805,6.029,0.0,0.009,-0.012,100.0,100.0,100.0,13.4,1505.2,325.0,-0.8,1.8,2471.151,13.29,0.009,0.0
2022-11-15T09:28:03,42.805,6.029,-0.03,-0.005,-0.031,100.0,100.0,100.0,13.4,1505.2,329.7,-0.8,1.8,2471.162,13.29,0.03,260.5
2022-11-15T09:31:03,42.805,6.029,0.001,0.006,0.028,100.0,101.0,100.0,13.3,1505.2,325.8,-0.7,1.8,2471.2,13.29,0.006,9.5
2022-11-15T09:34:03,42.805,6.029,-0.018,0.017,0.013,100.0,100.0,100.0,13.4,1505.2,328.3,-0.7,1.8,2471.219,13.29,0.024,313.4
2022-11-15T09:37:03,42.805,6.029,-0.025,-0.007,-0.039,100.0,101.0,101.0,13.3,1505.2,335.4,-0.8,1.8,2471.161,13.29,0.025,254.4
2022-11-15T09:40:03,42.805,6.029,-0.023,0.017,0.014,101.0,101.0,100.0,13.4,1505.2,320.9,-0.7,1.8,2471.192,13.29,0.028,306.5
2022-11-15T09:43:03,42.805,6.029,-0.018,0.011,-0.014,100.0,101.0,100.0,13.4,1505.2,322.1,-0.7,1.8,2471.193,13.29,0.021,301.4
2022-11-15T09:46:03,42.805,6.029,-0.013,-0.001,-0.002,99.0,102.0,99.0,13.4,1505.2,327.3,-0.8,1.8,2471.192,13.29,0.013,265.6
2022-11-15T09:49:03,42.805,6.029,-0.011,-0.01,-0.02,102.0,101.0,100.0,13.4,1505.2,330.3,-0.7,1.8,2471.16,13.29,0.014,227.7
2022-11-15T09:52:03,42.805,6.029,-0.014,0.001,0.003,101.0,100.0,100.0,13.3,1505.2,325.4,-0.7,1.9,2471.162,13.29,0.014,274.1
2022-11-15T09:55:03,42.805,6.029,-0.01,0.014,-0.009,101.0,101.0,101.0,13.4,1505.2,324.1,-0.7,1.8,2471.164,13.29,0.017,324.5
2022-11-15T09:58:03,42.805,6.029,0.009,-0.005,-0.012,101.0,100.0,100.0,13.4,1505.2,332.7,-0.7,1.8,2471.137,13.29,0.01,119.1
2022-11-15T10:04:03,42.805,6.029,-0.054,0.03,-0.01,101.0,100.0,100.0,13.3,1505.2,327.9,-0.8,1.8,2471.245,13.29,0.061,299.1
2022-11-15T10:07:03,42.805,6.029,-0.028,0.018,-0.007,100.0,101.0,100.0,13.4,1505.2,333.0,-0.8,1.8,2471.257,13.29,0.033,302.7
2022-11-15T10:10:03,42.805,6.029,-0.023,0.023,0.006,100.0,100.0,100.0,13.4,1505.2,327.9,-0.8,1.8,2471.202,13.29,0.032,315.0
2022-11-15T10:13:03,42.805,6.029,-0.037,0.0,-0.03,101.0,100.0,100.0,13.3,1505.2,319.0,-0.8,1.8,2471.217,13.29,0.037,270.0
2022-11-15T10:16:03,42.805,6.029,-0.044,0.042,0.032,100.0,99.0,101.0,13.4,1505.2,334.4,-0.8,1.8,2471.172,13.29,0.06,313.7
2022-11-15T10:19:03,42.805,6.029,-0.022,-0.005,-0.024,100.0,100.0,99.0,13.4,1505.2,323.5,-0.8,1.8,2471.2,13.29,0.022,257.2
2022-11-15T10:22:03,42.805,6.029,-0.033,0.033,0.0,100.0,99.0,100.0,13.4,1505.2,328.6,-0.8,1.8,2471.204,13.29,0.046,315.0
2022-11-15T10:25:03,42.805,6.029,-0.018,0.001,-0.025,99.0,100.0,100.0,13.4,1505.2,318.0,-0.8,1.8,2471.204,13.29,0.018,273.2
2022-11-15T10:28:03,42.805,6.029,-0.032,0.014,-0.03,100.0,99.0,100.0,13.4,1505.2,331.6,-0.7,1.8,2471.202,13.29,0.034,293.6
2022-11-15T10:31:03,42.805,6.029,-0.016,0.01,0.001,100.0,99.0,100.0,13.4,1505.2,324.6,-0.7,1.8,2471.18,13.29,0.018,302.0
2022-11-15T10:34:03,42.805,6.029,-0.031,0.022,-0.022,100.0,100.0,100.0,13.4,1505.2,316.9,-0.8,1.8,2471.203,13.29,0.038,305.4
2022-11-15T10:37:03,42.805,6.029,-0.024,0.034,-0.004,102.0,101.0,99.0,13.3,1505.2,333.7,-0.8,1.8,2471.198,13.29,0.041,324.8
2022-11-15T10:40:03,42.805,6.029,-0.018,0.002,-0.014,101.0,100.0,100.0,13.3,1505.2,322.7,-0.7,1.8,2471.202,13.29,0.018,276.3
2022-11-15T10:43:03,42.805,6.029,-0.012,0.01,0.02,100.0,100.0,99.0,13.3,1505.2,324.7,-0.7,1.8,2471.193,13.29,0.015,309.8
2022-11-15T10:46:03,42.805,6.029,0.014,0.019,0.012,101.0,101.0,100.0,13.3,1505.2,322.8,-0.7,1.8,2471.236,13.29,0.023,36.4
2022-11-15T10:49:03,42.805,6.029,-0.029,0.018,0.005,101.0,100.0,100.0,13.4,1505.2,328.2,-0.8,1.8,2471.182,13.29,0.034,301.8
2022-11-15T10:52:03,42.805,6.029,-0.004,0.03,0.004,102.0,99.0,100.0,13.4,1505.2,319.1,-0.8,1.8,2471.19,13.29,0.03,352.4
2022-11-15T10:55:03,42.805,6.029,-0.03,0.003,-0.008,101.0,101.0,99.0,13.4,1505.2,322.7,-0.7,1.9,2471.207,13.29,0.03,275.7
2022-11-15T10:58:03,42.805,6.029,-0.024,0.008,-0.026,101.0,100.0,100.0,13.4,1505.2,328.5,-0.7,1.8,2471.18,13.29,0.025,288.4